EN

Hourly Weather Abakumovka

Today, 19 June, Saturday

Time Temperature Precipitation Wind Pressure Humidity
00:00 +14°C° 0 mm 3 mps 755 mmHg 91%
01:00 +14°C° 0 mm 3 mps 755 mmHg 92%
02:00 +14°C° 0 mm 3 mps 756 mmHg 92%
03:00 +14°C° 0 mm 3 mps 756 mmHg 93%
04:00 +14°C° 0 mm 3 mps 756 mmHg 90%
05:00 +16°C° 0 mm 3 mps 756 mmHg 88%
06:00 +17°C° 0 mm 2 mps 756 mmHg 85%
07:00 +18°C° 0 mm 3 mps 756 mmHg 78%
08:00 +20°C° 0 mm 3 mps 756 mmHg 71%
09:00 +21°C° 0 mm 3 mps 756 mmHg 65%
10:00 +22°C° 0 mm 4 mps 756 mmHg 61%
11:00 +23°C° 0 mm 4 mps 756 mmHg 58%
12:00 +25°C° 0 mm 4 mps 756 mmHg 54%
13:00 +25°C° 0 mm 4 mps 756 mmHg 53%
14:00 +25°C° 0 mm 4 mps 756 mmHg 52%
15:00 +26°C° 0 mm 4 mps 755 mmHg 50%
16:00 +25°C° 0 mm 3 mps 755 mmHg 55%
17:00 +25°C° 0 mm 3 mps 755 mmHg 59%
18:00 +25°C° 0 mm 2 mps 755 mmHg 64%
19:00 +23°C° 0 mm 2 mps 755 mmHg 69%
20:00 +20°C° 0 mm 2 mps 755 mmHg 74%
21:00 +18°C° 0 mm 2 mps 755 mmHg 79%
22:00 +18°C° 0 mm 2 mps 755 mmHg 81%
23:00 +17°C° 0 mm 2 mps 755 mmHg 83%

Tomorrow, 20 June, Sunday

Time Temperature Precipitation Wind Pressure Humidity
00:00 +16°C° 0 mm 2 mps 755 mmHg 85%
01:00 +16°C° 0 mm 2 mps 755 mmHg 86%
02:00 +15°C° 0 mm 2 mps 755 mmHg 87%
03:00 +15°C° 0 mm 2 mps 755 mmHg 88%
04:00 +16°C° 0 mm 2 mps 755 mmHg 86%
05:00 +16°C° 0 mm 2 mps 755 mmHg 85%
06:00 +17°C° 0 mm 2 mps 755 mmHg 84%
07:00 +19°C° 0 mm 2 mps 755 mmHg 77%
08:00 +21°C° 0 mm 3 mps 755 mmHg 70%
09:00 +24°C° 0 mm 3 mps 755 mmHg 64%
10:00 +25°C° 0 mm 3 mps 755 mmHg 60%
11:00 +26°C° 0 mm 3 mps 754 mmHg 57%
12:00 +27°C° 0 mm 3 mps 754 mmHg 53%
13:00 +27°C° 0 mm 3 mps 754 mmHg 52%
14:00 +28°C° 0 mm 4 mps 754 mmHg 52%
15:00 +28°C° 0 mm 4 mps 753 mmHg 52%
16:00 +28°C° 0 mm 3 mps 753 mmHg 57%
17:00 +27°C° 0 mm 3 mps 753 mmHg 62%
18:00 +27°C° 0 mm 3 mps 753 mmHg 67%
19:00 +25°C° 0 mm 3 mps 753 mmHg 72%
20:00 +22°C° 0 mm 3 mps 753 mmHg 76%
21:00 +21°C° 0 mm 3 mps 753 mmHg 80%
22:00 +20°C° 0 mm 3 mps 753 mmHg 80%
23:00 +20°C° 0 mm 3 mps 753 mmHg 80%

Day after tomorrow, 21 June, Monday

Time Temperature Precipitation Wind Pressure Humidity
00:00 +20°C° 0 mm 3 mps 752 mmHg 80%
01:00 +19°C° 0 mm 3 mps 752 mmHg 79%
02:00 +19°C° 0 mm 3 mps 752 mmHg 79%
03:00 +19°C° 0 mm 3 mps 752 mmHg 79%
04:00 +19°C° 0 mm 3 mps 752 mmHg 79%
05:00 +19°C° 0 mm 3 mps 753 mmHg 79%
06:00 +19°C° 0 mm 3 mps 753 mmHg 80%
07:00 +21°C° 0 mm 3 mps 753 mmHg 75%
08:00 +23°C° 0 mm 4 mps 753 mmHg 70%
09:00 +26°C° 0 mm 4 mps 753 mmHg 65%
10:00 +27°C° 0 mm 5 mps 753 mmHg 61%
11:00 +28°C° 0 mm 5 mps 753 mmHg 58%
12:00 +29°C° 0 mm 5 mps 753 mmHg 54%
13:00 +30°C° 0 mm 5 mps 752 mmHg 53%
14:00 +30°C° 0 mm 4 mps 752 mmHg 51%
15:00 +32°C° 0 mm 4 mps 752 mmHg 50%
16:00 +30°C° 0 mm 4 mps 752 mmHg 55%
17:00 +30°C° 0 mm 4 mps 752 mmHg 60%
18:00 +29°C° 0 mm 3 mps 752 mmHg 65%
19:00 +27°C° 0 mm 3 mps 752 mmHg 70%
20:00 +26°C° 0 mm 3 mps 752 mmHg 75%
21:00 +24°C° 0 mm 3 mps 752 mmHg 79%
22:00 +22°C° 0 mm 3 mps 752 mmHg 80%
23:00 +21°C° 0 mm 3 mps 752 mmHg 81%

22 June, Tuesday

Time Temperature Precipitation Wind Pressure Humidity
00:00 +21°C° 0 mm 3 mps 752 mmHg 82%
01:00 +20°C° 0 mm 3 mps 752 mmHg 83%
02:00 +20°C° 0 mm 3 mps 752 mmHg 84%
03:00 +19°C° 0 mm 3 mps 752 mmHg 85%
04:00 +20°C° 0 mm 3 mps 752 mmHg 84%
05:00 +20°C° 0 mm 3 mps 752 mmHg 84%
06:00 +21°C° 0 mm 3 mps 753 mmHg 84%
07:00 +24°C° 0 mm 3 mps 753 mmHg 78%
08:00 +26°C° 0 mm 3 mps 753 mmHg 72%
09:00 +28°C° 0 mm 4 mps 753 mmHg 66%
10:00 +29°C° 0 mm 4 mps 753 mmHg 62%
11:00 +30°C° 0 mm 4 mps 753 mmHg 58%
12:00 +32°C° 0 mm 4 mps 753 mmHg 55%
13:00 +32°C° 0 mm 4 mps 752 mmHg 53%
14:00 +33°C° 0 mm 4 mps 752 mmHg 51%
15:00 +33°C° 0 mm 4 mps 752 mmHg 49%
16:00 +31°C° 0 mm 3 mps 752 mmHg 54%
17:00 +31°C° 0 mm 3 mps 752 mmHg 59%
18:00 +30°C° 0 mm 3 mps 752 mmHg 64%
19:00 +29°C° 0 mm 3 mps 752 mmHg 68%
20:00 +27°C° 0 mm 3 mps 752 mmHg 71%
21:00 +25°C° 0 mm 3 mps 752 mmHg 75%
22:00 +25°C° 0 mm 3 mps 752 mmHg 77%
23:00 +24°C° 0 mm 3 mps 752 mmHg 78%

23 June, Wednesday

Time Temperature Precipitation Wind Pressure Humidity
00:00 +22°C° 0 mm 3 mps 752 mmHg 80%
01:00 +22°C° 0 mm 3 mps 752 mmHg 80%
02:00 +22°C° 0 mm 3 mps 752 mmHg 81%
03:00 +21°C° 0 mm 3 mps 752 mmHg 82%
04:00 +21°C° 0 mm 3 mps 752 mmHg 81%
05:00 +22°C° 0 mm 3 mps 753 mmHg 80%
06:00 +22°C° 0 mm 3 mps 753 mmHg 79%
07:00 +25°C° 0 mm 3 mps 753 mmHg 72%
08:00 +27°C° 0 mm 3 mps 753 mmHg 65%
09:00 +29°C° 0 mm 4 mps 753 mmHg 58%
10:00 +30°C° 0 mm 4 mps 753 mmHg 55%
11:00 +32°C° 0 mm 4 mps 753 mmHg 51%
12:00 +33°C° 0 mm 4 mps 753 mmHg 48%
13:00 +33°C° 0 mm 4 mps 753 mmHg 47%
14:00 +34°C° 0 mm 4 mps 753 mmHg 47%
15:00 +34°C° 0 mm 4 mps 753 mmHg 46%
16:00 +33°C° 0 mm 4 mps 752 mmHg 52%
17:00 +33°C° 0 mm 3 mps 752 mmHg 57%
18:00 +31°C° 0 mm 3 mps 752 mmHg 62%
19:00 +29°C° 0 mm 3 mps 752 mmHg 66%
20:00 +27°C° 0 mm 3 mps 753 mmHg 69%
21:00 +26°C° 0 mm 3 mps 753 mmHg 73%
22:00 +25°C° 0 mm 2 mps 752 mmHg 73%
23:00 +24°C° 0 mm 2 mps 752 mmHg 72%

24 June, Thursday

Time Temperature Precipitation Wind Pressure Humidity
00:00 +24°C° 0 mm 2 mps 752 mmHg 72%
01:00 +23°C° 0 mm 2 mps 752 mmHg 71%
02:00 +22°C° 0 mm 3 mps 752 mmHg 71%
03:00 +21°C° 0 mm 3 mps 752 mmHg 70%
04:00 +22°C° 0 mm 3 mps 753 mmHg 72%
05:00 +22°C° 0 mm 3 mps 753 mmHg 74%
06:00 +22°C° 0 mm 3 mps 753 mmHg 75%
07:00 +25°C° 0 mm 3 mps 753 mmHg 70%
08:00 +27°C° 0 mm 3 mps 753 mmHg 65%
09:00 +29°C° 0 mm 4 mps 753 mmHg 60%
10:00 +30°C° 0 mm 4 mps 753 mmHg 56%
11:00 +31°C° 0 mm 3 mps 752 mmHg 52%
12:00 +33°C° 0 mm 3 mps 752 mmHg 48%
13:00 +34°C° 0 mm 3 mps 752 mmHg 47%
14:00 +34°C° 0 mm 3 mps 752 mmHg 46%
15:00 +34°C° 0 mm 3 mps 752 mmHg 45%
16:00 +34°C° 0 mm 3 mps 752 mmHg 50%
17:00 +33°C° 0 mm 3 mps 752 mmHg 55%
18:00 +32°C° 0 mm 2 mps 751 mmHg 60%
19:00 +30°C° 0 mm 3 mps 751 mmHg 63%
20:00 +28°C° 0 mm 3 mps 751 mmHg 67%
21:00 +27°C° 0 mm 3 mps 751 mmHg 71%
22:00 +26°C° 0 mm 3 mps 750 mmHg 71%
23:00 +25°C° 0 mm 3 mps 750 mmHg 72%
Show more